EW8780 Weather Reports


Display with metric or nautical units.
time (UTC)temp
F
wind
direction
speed
MPH
gust
MPH
rain 1hr
in
rain 24hr
in
rain mn
in
humidity
%
barometer
mb
20260901204537 63 249 3.0 8.0 0.00 0.05 0.05 86 1011.1
20260901203101 63 258 2.0 5.0 0.00 0.05 0.05 86 1011.0
20260901201536 63 217 2.0 5.0 0.00 0.05 0.05 87 1011.0
20260901200040 63 144 2.0 7.0 0.00 0.05 0.05 87 1011.0
20260901194536 62 222 1.0 6.0 0.00 0.05 0.05 88 1011.0
20260901193038 63 245 1.0 5.0 0.00 0.05 0.05 88 1010.9
20260901191532 62 217 1.0 4.0 0.00 0.05 0.05 89 1010.9
20260901190032 64 214 2.0 6.0 0.00 0.05 0.05 88 1010.9
20260901184529 64 222 3.0 7.0 0.00 0.05 0.05 89 1010.8
20260901183030 64 231 2.0 7.0 0.00 0.05 0.05 92 1010.8
20260901181528 63 227 2.0 5.0 0.01 0.05 0.05 94 1010.7
20260901180024 63 233 2.0 7.0 0.01 0.05 0.05 95 1010.6
20260901174522 63 236 2.0 4.0 0.01 0.05 0.05 95 1010.5
20260901173019 60 337 0.0 0.0 0.01 0.05 0.05 95 1010.4
20260901171518 61 337 0.0 0.0 0.01 0.04 0.04 95 1010.3
20260901170017 60 342 0.0 0.0 0.01 0.04 0.04 95 1010.2
20260901164515 60 342 0.0 0.0 0.03 0.04 0.04 95 1010.1
20260901163015 60 342 0.0 0.0 0.03 0.04 0.04 95 1010.1
20260901161514 60 13 0.0 0.0 0.02 0.03 0.03 95 1010.2
20260901160012 59 13 0.0 0.0 0.02 0.03 0.03 95 1010.2
20260901154510 59 328 0.0 0.0 0.00 0.01 0.01 95 1010.1
20260901153010 59 235 0.0 0.0 0.00 0.01 0.01 95 1010.0
20260901151508 59 207 0.0 0.0 0.01 0.01 0.01 95 1009.9
20260901150007 58 207 0.0 0.0 0.01 0.01 0.01 95 1009.8
20260901144501 58 206 0.0 0.0 0.01 0.01 0.01 95 1009.7
20260901143057 58 194 0.0 0.0 0.01 0.01 0.01 95 1009.7
20260901141556 58 194 0.0 0.0 0.00 0.00 0.00 95 1009.7
20260901140049 58 194 0.0 0.0 0.00 0.00 0.00 94 1009.6
20260901134548 58 194 0.0 0.0 0.00 0.00 0.00 94 1009.5
20260901133049 58 194 0.0 0.0 0.00 0.00 0.00 94 1009.4
20260901131548 58 194 0.0 0.0 0.00 0.00 0.00 94 1009.2
20260901130046 58 194 0.0 0.0 0.00 0.00 0.00 94 1009.2
20260901124546 58 194 0.0 0.0 0.00 0.00 0.00 94 1009.2
20260901123046 58 194 0.0 0.0 0.00 0.00 0.00 94 1009.1
20260901121544 58 194 0.0 0.0 0.00 0.00 0.00 93 1009.3
20260901120049 58 194 0.0 0.0 0.00 0.00 0.00 93 1009.3
20260901114543 58 194 0.0 0.0 0.00 0.00 0.00 93 1009.3
20260901113042 58 194 0.0 0.0 0.00 0.00 0.00 93 1009.3
20260901111542 58 194 0.0 0.0 0.00 0.00 0.00 93 1009.3
20260901110040 57 194 0.0 0.0 0.00 0.00 0.00 93 1009.5
20260901104542 58 194 0.0 0.0 0.00 0.00 0.00 93 1009.5
20260901103039 58 194 0.0 0.0 0.00 0.00 0.00 92 1009.4
20260901101550 58 194 0.0 0.0 0.00 0.00 0.00 92 1009.4
20260901100037 58 194 0.0 0.0 0.00 0.00 0.00 92 1009.5
20260901094539 58 194 0.0 0.0 0.00 0.00 0.00 92 1009.4
20260901093035 58 194 0.0 0.0 0.00 0.00 0.00 92 1009.6
20260901091535 58 194 0.0 0.0 0.00 0.00 0.00 92 1009.6
20260901090034 58 194 0.0 0.0 0.00 0.00 0.00 92 1009.6
20260901084533 58 194 0.0 0.0 0.00 0.00 0.00 92 1009.6
20260901083033 58 194 0.0 0.0 0.00 0.00 0.00 92 1009.5
20260901081533 58 194 0.0 0.0 0.00 0.00 0.00 92 1009.5
20260901080032 58 194 0.0 0.0 0.00 0.00 0.00 92 1009.5
20260901074542 58 194 0.0 0.0 0.00 0.00 0.00 92 1009.5
20260901073037 58 194 0.0 0.0 0.00 0.00 0.00 92 1009.6
20260901071529 57 194 0.0 0.0 0.00 0.00 0.00 91 1009.6
20260901070030 58 194 0.0 0.0 0.00 0.00 0.00 91 1009.6
20260901064529 58 194 0.0 0.0 0.00 0.00 0.00 91 1009.7
20260901063025 57 194 0.0 0.0 0.00 0.00 0.00 91 1009.8
20260901061525 57 194 0.0 0.0 0.00 0.00 0.00 91 1009.8
20260901060024 57 194 0.0 0.0 0.00 0.00 0.00 91 1009.8
20260901054524 57 194 0.0 0.0 0.00 0.00 0.00 91 1010.0
20260901053024 57 194 0.0 0.0 0.00 0.00 0.00 91 1010.1
20260901051530 57 194 0.0 0.0 0.00 0.00 0.00 91 1010.3
20260901050022 57 194 0.0 0.0 0.00 0.00 0.00 91 1010.4
20260901044523 57 194 0.0 0.0 0.00 0.00 0.00 91 1010.3
20260901043022 57 194 0.0 0.0 0.00 0.00 0.00 91 1010.4
20260901041544 57 194 0.0 0.0 0.00 0.00 0.00 90 1010.3
20260901040021 57 194 0.0 0.0 0.00 0.00 0.00 90 1010.3
20260901034519 57 194 0.0 0.0 0.00 0.00 0.00 90 1010.0
20260901033016 57 194 0.0 0.0 0.00 0.00 0.00 90 1009.9
20260901031516 57 194 0.0 0.0 0.00 0.00 0.00 88 1009.8
20260901030014 57 194 0.0 1.0 0.00 0.00 0.00 88 1009.8
20260901024514 57 194 0.0 2.0 0.00 0.00 0.00 88 1009.7
20260901023016 57 194 0.0 3.0 0.00 0.00 0.00 88 1009.6
20260901021517 57 145 0.0 4.0 0.00 0.00 0.00 88 1009.5
20260901020012 58 224 1.0 3.0 0.00 0.00 0.00 87 1009.6
20260901014529 58 209 2.0 5.0 0.00 0.00 0.00 87 1009.6
20260901013011 58 224 2.0 5.0 0.00 0.00 0.00 86 1009.6
20260901011512 59 221 1.0 4.0 0.00 0.00 0.00 85 1009.4
20260901010009 60 181 1.0 5.0 0.00 0.00 0.00 84 1009.4
20260901004507 60 184 2.0 7.0 0.00 0.00 0.00 82 1009.5
20260901003007 61 227 2.0 5.0 0.00 0.00 0.00 81 1009.5
20260901001505 61 102 3.0 5.0 0.00 0.00 0.00 80 1009.2
20260901000005 62 220 2.0 6.0 0.00 0.00 0.00 80 1009.2
20260831234507 63 227 3.0 7.0 0.00 0.00 0.00 80 1009.2
20260831233003 62 214 2.0 10.0 0.00 0.00 0.00 80 1009.2
20260831231502 64 227 3.0 10.0 0.00 0.00 0.00 76 1009.0
20260831230002 68 205 3.0 9.0 0.00 0.00 0.00 71 1009.0
20260831224502 68 231 4.0 10.0 0.00 0.00 0.00 74 1008.9
20260831223101 69 190 4.0 7.0 0.00 0.00 0.00 72 1009.0
20260831221600 72 165 3.0 10.0 0.00 0.00 0.00 70 1009.0
20260831220056 70 172 4.0 10.0 0.00 0.00 0.00 72 1009.0
20260831214604 69 195 4.0 9.0 0.00 0.00 0.00 73 1009.1
20260831213053 68 226 4.0 8.0 0.00 0.00 0.00 73 1009.0
20260831211555 68 219 2.0 9.0 0.00 0.00 0.00 73 1009.0
20260831210051 68 203 4.0 11.0 0.00 0.00 0.00 74 1009.0